Total_Precipitation_Accumulation
0.00 0.01 0.02 0.03 0.03 0.04 0.08 0.10 0.15 0.19 0.16 0.20 0.36 0.54 0.59 0.77 1.06 1.38 1.73 1.97 2.30 2.62 2.99 3.41 3.49 3.72 4.04 4.65 5.12 5.35 5.35 5.15 4.85 4.46 4.07 3.90 3.82 3.79 3.65 3.50 3.34 3.20 3.12 3.19
0.01 0.03 0.02 0.02 0.02 0.04 0.07 0.11 0.16 0.18 0.16 0.19 0.37 0.56 0.67 1.01 1.33 1.39 1.57 1.71 1.90 2.33 2.67 2.98 3.15 3.23 3.64 4.23 4.67 4.83 4.59 4.46 4.30 4.05 3.95 3.94 4.15 3.87 3.63 3.51 3.36 3.08 3.04 3.14
0.03 0.04 0.02 0.02 0.02 0.03 0.05 0.07 0.12 0.18 0.18 0.25 0.39 0.73 0.94 1.16 1.29 1.32 1.42 1.58 1.69 1.98 2.29 2.60 2.71 2.87 3.08 3.18 3.44 3.62 3.78 3.72 3.60 3.59 3.57 3.61 3.83 3.62 3.45 3.37 3.29 2.92 2.77 2.75
0.03 0.03 0.03 0.04 0.05 0.05 0.07 0.07 0.07 0.10 0.18 0.31 0.46 1.01 1.27 1.23 1.27 1.40 1.40 1.39 1.64 1.94 1.93 2.04 2.25 2.42 2.67 2.79 2.98 3.04 3.08 3.22 3.26 3.34 3.24 3.09 2.99 2.92 2.88 2.99 2.96 2.90 2.76 2.65
0.05 0.04 0.03 0.05 0.06 0.04 0.05 0.05 0.07 0.11 0.21 0.33 0.46 0.78 1.20 1.53 1.60 1.41 1.35 1.24 1.44 1.58 1.49 1.48 1.65 1.79 2.00 2.19 2.42 2.58 2.70 2.81 2.93 3.00 2.93 2.90 2.69 2.69 2.75 2.80 2.82 2.78 2.73 2.70
0.05 0.05 0.04 0.04 0.04 0.04 0.04 0.07 0.13 0.25 0.43 0.67 0.57 0.71 1.14 1.48 1.73 1.48 1.27 1.19 1.29 1.26 1.23 1.34 1.46 1.55 1.68 1.93 2.11 2.25 2.40 2.46 2.58 2.63 2.68 2.65 2.60 2.62 2.62 2.63 2.62 2.60 2.60 2.51
0.12 0.12 0.10 0.06 0.06 0.06 0.06 0.13 0.47 0.84 1.12 1.14 0.73 0.79 1.15 1.16 1.19 1.21 1.16 1.21 1.21 1.14 1.07 1.08 1.18 1.33 1.50 1.70 1.81 1.87 2.01 2.10 2.11 2.17 2.23 2.24 2.33 2.45 2.33 2.28 2.27 2.27 2.14 2.03
0.17 0.24 0.15 0.09 0.09 0.09 0.11 0.15 0.51 0.79 0.85 0.95 0.82 1.11 1.44 1.15 1.06 1.00 1.08 1.18 1.17 1.03 0.96 0.99 1.08 1.14 1.21 1.38 1.56 1.60 1.71 1.82 1.96 2.00 1.99 2.01 2.03 2.06 1.97 2.03 2.02 1.97 1.75 1.68
0.10 0.11 0.08 0.08 0.09 0.11 0.15 0.18 0.23 0.45 0.51 0.72 0.93 1.22 1.39 1.09 1.05 1.17 1.29 1.28 1.23 0.97 0.82 0.84 0.85 0.89 0.90 1.00 1.13 1.25 1.52 1.66 1.75 1.82 1.84 1.78 1.74 1.79 1.81 1.86 1.96 1.87 1.83 1.70
0.06 0.05 0.06 0.07 0.09 0.12 0.15 0.16 0.19 0.37 0.56 0.77 0.91 1.27 1.57 1.52 1.36 1.29 1.37 1.22 0.95 0.78 0.68 0.63 0.63 0.64 0.72 0.80 0.88 1.02 1.24 1.35 1.44 1.60 1.66 1.54 1.69 1.80 1.83 1.81 1.70 1.69 1.72 1.73
0.05 0.04 0.06 0.09 0.12 0.14 0.19 0.21 0.29 0.40 0.44 0.66 1.03 1.24 1.19 1.24 1.17 1.22 1.21 1.04 0.80 0.65 0.59 0.60 0.59 0.62 0.69 0.74 0.84 1.01 1.23 1.38 1.37 1.46 1.55 1.57 1.67 1.79 1.82 1.73 1.63 1.62 1.63 1.68
0.07 0.06 0.10 0.16 0.18 0.17 0.17 0.19 0.28 0.42 0.42 0.46 0.71 0.93 0.67 0.73 0.75 0.82 0.88 0.77 0.69 0.66 0.61 0.67 0.72 0.72 0.73 0.81 0.91 1.04 1.18 1.34 1.40 1.51 1.68 1.82 1.78 1.72 1.73 1.72 1.62 1.55 1.49 1.56
0.11 0.12 0.17 0.38 0.48 0.30 0.19 0.17 0.19 0.24 0.27 0.30 0.53 0.73 0.52 0.59 0.70 0.83 0.92 0.93 0.88 0.79 0.64 0.67 0.86 0.93 0.85 0.92 1.05 1.16 1.28 1.38 1.48 1.61 1.83 1.98 1.86 1.75 1.78 1.73 1.58 1.46 1.38 1.43
0.12 0.15 0.19 0.41 0.52 0.40 0.30 0.23 0.19 0.22 0.31 0.28 0.32 0.50 0.51 0.58 0.72 0.82 0.91 0.93 0.84 0.75 0.69 0.75 0.85 0.90 1.02 1.06 1.16 1.28 1.22 1.32 1.44 1.47 1.65 1.82 1.78 1.65 1.57 1.57 1.55 1.53 1.49 1.43
0.10 0.12 0.13 0.16 0.23 0.30 0.32 0.27 0.21 0.18 0.21 0.34 0.33 0.38 0.49 0.60 0.64 0.81 0.89 0.82 0.77 0.72 0.69 0.75 0.88 0.89 0.90 0.94 0.94 1.00 0.96 1.11 1.12 1.18 1.29 1.39 1.37 1.37 1.35 1.30 1.28 1.33 1.41 1.36
0.19 0.18 0.17 0.15 0.18 0.22 0.26 0.26 0.18 0.14 0.12 0.16 0.28 0.49 0.53 0.56 0.62 0.75 0.77 0.75 0.75 0.82 0.87 0.89 0.92 0.97 0.88 0.82 0.77 0.71 0.75 0.88 0.99 1.10 1.08 1.15 1.25 1.18 1.14 1.16 1.14 1.18 1.27 1.37
0.37 0.33 0.30 0.25 0.21 0.27 0.32 0.26 0.19 0.14 0.13 0.14 0.32 0.59 0.60 0.61 0.64 0.75 0.84 0.85 0.76 0.76 0.81 0.90 0.95 0.92 0.77 0.72 0.70 0.70 0.73 0.79 0.84 0.93 1.06 1.15 1.23 1.19 1.12 1.18 1.29 1.30 1.43 1.49
0.45 0.49 0.42 0.37 0.44 0.58 0.39 0.25 0.21 0.22 0.21 0.22 0.28 0.38 0.47 0.61 0.63 0.62 0.70 0.82 0.84 0.85 0.92 0.93 0.87 0.83 0.79 0.76 0.77 0.78 0.77 0.82 0.91 0.92 0.98 1.06 1.13 1.12 1.12 1.13 1.21 1.32 1.49 1.58
0.35 0.52 0.54 0.51 0.60 0.52 0.43 0.37 0.35 0.38 0.39 0.35 0.44 0.43 0.49 0.55 0.60 0.73 0.64 0.68 0.70 0.86 0.90 0.94 0.94 0.96 0.97 0.93 0.97 1.00 0.95 0.96 1.05 1.13 1.16 1.10 1.16 1.22 1.26 1.29 1.33 1.41 1.50 1.55
0.45 0.58 0.72 0.67 0.80 0.81 0.67 0.57 0.49 0.51 0.85 0.65 0.60 0.61 0.69 0.72 0.84 1.01 0.81 0.71 0.77 0.85 0.84 0.91 0.89 0.93 1.02 1.04 1.17 1.23 1.23 1.21 1.25 1.33 1.41 1.43 1.50 1.55 1.51 1.61 1.72 1.75 1.76 1.71
0.93 0.93 0.86 0.86 0.99 0.99 0.78 0.66 0.61 1.01 1.22 0.80 0.72 0.77 0.76 0.80 0.92 0.95 0.93 0.92 0.90 0.76 0.72 0.78 0.88 0.88 0.97 1.13 1.29 1.42 1.44 1.37 1.43 1.53 1.64 1.76 1.86 2.01 2.14 2.23 2.14 2.08 2.09 2.11
1.10 1.19 1.18 1.20 1.38 1.31 0.84 0.78 1.11 1.33 1.00 1.02 0.92 0.84 0.83 0.78 0.86 0.92 0.93 0.88 0.76 0.73 0.74 0.78 0.92 0.93 0.97 1.13 1.30 1.45 1.48 1.52 1.69 1.82 1.97 2.07 2.25 2.32 2.42 2.77 2.81 2.79 2.74 2.47
1.23 1.28 1.27 1.33 1.43 1.17 1.01 1.17 1.25 1.21 1.18 1.22 1.25 1.06 0.95 0.88 0.90 0.93 0.85 0.77 0.69 0.70 0.72 0.78 0.93 1.05 1.08 1.17 1.39 1.64 1.70 1.76 1.88 2.00 2.19 2.32 2.40 2.54 2.67 2.80 2.79 2.82 2.75 2.49
1.36 1.14 1.28 1.44 1.54 1.33 1.24 1.25 1.29 1.26 1.21 1.21 1.28 1.40 1.37 1.12 0.97 0.99 0.95 0.86 0.84 0.88 0.85 0.86 0.97 1.12 1.30 1.41 1.58 1.84 1.89 2.01 2.08 2.13 2.24 2.33 2.41 2.52 2.69 2.83 2.75 2.65 2.57 2.50
1.34 1.37 1.54 1.79 1.78 1.63 1.49 1.53 1.64 1.54 1.39 1.40 1.39 1.44 1.49 1.20 0.99 0.95 1.02 0.98 0.96 1.05 1.07 1.05 1.10 1.21 1.42 1.61 1.76 1.84 1.89 2.08 2.26 2.27 2.30 2.39 2.40 2.41 2.51 2.58 2.65 2.55 2.47 2.44
1.37 1.52 1.78 1.99 1.81 1.92 1.78 1.50 1.60 1.72 1.57 1.57 1.51 1.42 1.27 1.15 1.10 1.11 1.10 1.07 1.06 1.17 1.20 1.21 1.21 1.28 1.45 1.62 1.84 1.95 2.07 2.21 2.32 2.35 2.27 2.33 2.38 2.37 2.36 2.34 2.21 2.16 2.10 2.04